Weather History for KTRL - November, 2013

Change the Weather History Date:

Tuesday, November 5, 2013

  Actual Average (KDFW) Record (KDFW)
Temperature  
Mean Temperature 64 °F 61 °F  
Max Temperature 69 °F 71 °F 89 °F (2005)
Min Temperature 60 °F 50 °F 26 °F (1991)
Degree Days  
Heating Degree Days 0 6  
Month to date heating degree days 27  
Since 1 July heating degree days 99  
Cooling Degree Days 0 2  
Month to date cooling degree days 10  
Year to date cooling degree days 2733  
Growing Degree Days 14 (Base 50)    
Moisture  
Dew Point 64 °F    
Average Humidity 100    
Maximum Humidity 100    
Minimum Humidity 94    
Precipitation  
Precipitation 0.54 in 0.10 in 2.14 in (2000)
Month to date precipitation 0.57  
Year to date precipitation 31.45  
Snow  
Snow 0.00 in 0.00 in 0.00 in ()
Month to date snowfall 0.0  
Since 1 July snowfall 0.0  
Since 1 September snowfall 0.0  
Snow Depth -    
Sea Level Pressure  
Sea Level Pressure 30.03 in    
Wind  
Wind Speed 8 mph (SE)    
Max Wind Speed 15 mph    
Max Gust Speed 21 mph    
Visibility 6 miles    
Events Rain    
T = Trace of Precipitation, MM = Missing Value Source: NWS Daily Summary

Daily Weather History Graph

Daily Weather History Graph

Search for Another Location

Airport or City:

Trip Planner

Search our weather history database for the weather conditions in past years. The results will help you decide how hot, cold, wet, or windy it might be!

Date:

Astronomy

Nov. 05, 2013 Rise Set
Actual Time 6:46 AM CST 5:30 PM CST
Civil Twilight 6:20 AM CST 5:56 PM CST
Nautical Twilight 5:51 AM CST 6:25 PM CST
Astronomical Twilight 5:22 AM CST 6:54 PM CST
Moon 8:58 AM CST (11/5) 7:37 PM CST (11/5)
Length of Visible Light 11h 35m
Length of Day
10h 44m
Waxing Crescent, 7% of the Moon is Illuminated
Nov 5
Waxing Crescent
Nov 9
First Quarter
Nov 17
Full
Nov 25
Last Quarter
Dec 2
New

Hourly Weather History & Observations

Time (CST) Temp. Dew Point Humidity Pressure Visibility Wind Dir Wind Speed Gust Speed Precip Events Conditions
12:03 AM 60.8 °F 60.8 °F 100% 30.09 in 2.5 mi East 8.1 mph - 0.03 in Rain Heavy Rain
12:11 AM 60.8 °F 60.8 °F 100% 30.09 in 3.0 mi East 8.1 mph - 0.04 in Rain Light Rain
12:22 AM 60.8 °F 60.8 °F 100% 30.08 in 3.0 mi East 9.2 mph - 0.05 in Rain Light Rain
12:34 AM 60.8 °F 60.8 °F 100% 30.07 in 5.0 mi East 9.2 mph - 0.05 in Rain Light Rain
12:53 AM 61.0 °F 61.0 °F 100% 30.07 in 7.0 mi East 6.9 mph - 0.05 in   Overcast
1:23 AM 60.8 °F 60.8 °F 100% 30.07 in 6.0 mi ENE 6.9 mph - 0.01 in Rain Light Rain
1:53 AM 61.0 °F 61.0 °F 100% 30.05 in 3.0 mi East 8.1 mph - 0.02 in Rain Rain
1:57 AM 60.8 °F 60.8 °F 100% 30.06 in 2.5 mi East 10.4 mph - 0.01 in Rain Rain
2:05 AM 60.8 °F 60.8 °F 100% 30.06 in 3.0 mi East 9.2 mph - 0.02 in Rain Rain
2:22 AM 60.8 °F 60.8 °F 100% 30.05 in 7.0 mi SE 6.9 mph - 0.04 in Rain Light Rain
2:37 AM 62.6 °F 62.6 °F 100% 30.05 in 9.0 mi SE 12.7 mph - 0.04 in   Overcast
2:53 AM 62.1 °F 62.1 °F 100% 30.04 in 3.0 mi SE 15.0 mph 20.7 mph 0.05 in Rain Light Rain
3:00 AM 62.6 °F 62.6 °F 100% 30.05 in 2.0 mi SE 11.5 mph - 0.01 in Rain Rain
3:23 AM 60.8 °F 60.8 °F 100% 30.05 in 3.0 mi East 5.8 mph - 0.04 in Rain Light Rain
3:42 AM 60.8 °F 60.8 °F 100% 30.05 in 3.0 mi East 6.9 mph - 0.05 in Rain Rain
3:53 AM 61.0 °F 61.0 °F 100% 30.04 in 3.0 mi East 5.8 mph - 0.05 in Rain Light Rain
4:12 AM 60.8 °F 60.8 °F 100% 30.05 in 6.0 mi East 8.1 mph - 0.00 in Rain Light Rain
4:41 AM 62.6 °F 62.6 °F 100% 30.04 in 5.0 mi ESE 12.7 mph 18.4 mph 0.02 in Rain Light Rain
4:49 AM 60.8 °F 60.8 °F 100% 30.04 in 5.0 mi ESE 9.2 mph - 0.02 in Rain Light Rain
4:53 AM 61.0 °F 61.0 °F 100% 30.04 in 3.0 mi East 8.1 mph - 0.02 in Rain Light Rain
4:58 AM 60.8 °F 60.8 °F 100% 30.05 in 2.5 mi East 8.1 mph - 0.00 in Rain Light Rain
5:24 AM 60.8 °F 60.8 °F 100% 30.04 in 4.0 mi East 4.6 mph - 0.05 in Rain Light Rain
5:30 AM 60.8 °F 60.8 °F 100% 30.04 in 6.0 mi East 5.8 mph - 0.05 in   Overcast
5:53 AM 61.0 °F 61.0 °F 100% 30.03 in 7.0 mi East 5.8 mph - 0.05 in   Overcast
6:01 AM 60.8 °F 60.8 °F 100% 30.04 in 8.0 mi ESE 5.8 mph - N/A   Overcast
6:46 AM 60.8 °F 60.8 °F 100% 30.05 in 8.0 mi East 5.8 mph - N/A   Overcast
6:53 AM 61.0 °F 61.0 °F 100% 30.04 in 8.0 mi East 6.9 mph - N/A   Overcast
7:35 AM 62.6 °F 62.6 °F 100% 30.06 in 7.0 mi ESE 8.1 mph - N/A   Overcast
7:43 AM 62.6 °F 62.6 °F 100% 30.06 in 7.0 mi Variable 6.9 mph - N/A   Overcast
7:53 AM 62.1 °F 62.1 °F 100% 30.05 in 8.0 mi ESE 6.9 mph - N/A   Overcast
8:53 AM 64.0 °F 64.0 °F 100% 30.06 in 8.0 mi SE 9.2 mph - N/A   Overcast
9:53 AM 64.9 °F 64.9 °F 100% 30.06 in 9.0 mi SSE 8.1 mph - N/A   Overcast
10:05 AM 66.2 °F 64.4 °F 94% 30.07 in 7.0 mi SSE 8.1 mph - N/A   Overcast
10:14 AM 66.2 °F 64.4 °F 94% 30.07 in 8.0 mi SSE 8.1 mph - N/A   Overcast
10:29 AM 66.2 °F 64.4 °F 94% 30.07 in 6.0 mi SE 8.1 mph - N/A   Overcast
10:53 AM 66.0 °F 66.0 °F 100% 30.06 in 3.0 mi SE 6.9 mph - 0.00 in Rain Light Rain
11:17 AM 66.2 °F 66.2 °F 100% 30.05 in 5.0 mi ESE 6.9 mph - 0.00 in Rain Light Rain
11:45 AM 66.2 °F 66.2 °F 100% 30.04 in 9.0 mi SSE 10.4 mph 17.3 mph 0.00 in   Overcast
11:53 AM 66.9 °F 66.0 °F 97% 30.03 in 9.0 mi SE 9.2 mph 17.3 mph 0.00 in   Overcast
12:17 PM 66.2 °F 66.2 °F 100% 30.03 in 9.0 mi SE 9.2 mph - N/A   Overcast
12:53 PM 66.9 °F 66.9 °F 100% 30.00 in 9.0 mi SSE 9.2 mph - 0.01 in   Overcast
1:51 PM 66.2 °F 66.2 °F 100% 29.99 in 3.0 mi SSE 10.4 mph - 0.03 in Rain Light Rain
1:53 PM 66.9 °F 66.9 °F 100% 29.98 in 2.0 mi SSE 9.2 mph - 0.05 in Rain Heavy Rain
2:00 PM 66.2 °F 66.2 °F 100% 29.99 in 1.2 mi SSE 10.4 mph - 0.04 in Rain Heavy Rain
2:14 PM 66.2 °F 66.2 °F 100% 29.99 in 3.0 mi SSE 10.4 mph - 0.06 in Rain Light Rain
2:53 PM 66.9 °F 66.9 °F 100% 29.97 in 2.0 mi SSE 8.1 mph - 0.08 in Rain Rain
3:33 PM 66.2 °F 66.2 °F 100% 29.98 in 1.5 mi SSE 8.1 mph - 0.03 in Rain Light Rain
3:53 PM 66.9 °F 66.9 °F 100% 29.97 in 1.5 mi SSE 8.1 mph - 0.09 in Rain Heavy Rain
4:09 PM 66.2 °F 66.2 °F 100% 29.98 in 2.0 mi SE 6.9 mph - 0.06 in Rain Rain
4:16 PM 66.2 °F 66.2 °F 100% 29.97 in 2.0 mi ESE 10.4 mph - 0.06 in Rain Light Rain
4:23 PM 66.2 °F 66.2 °F 100% 29.97 in 5.0 mi SE 9.2 mph - 0.06 in Rain Light Rain
4:53 PM 68.0 °F 68.0 °F 100% 29.96 in 10.0 mi SSE 6.9 mph - 0.06 in   Overcast
5:53 PM 68.0 °F 66.9 °F 96% 29.96 in 10.0 mi SSE 5.8 mph - N/A   Overcast
6:53 PM 68.0 °F 68.0 °F 100% 29.96 in 10.0 mi SSE 9.2 mph - N/A   Overcast
7:38 PM 68.0 °F 68.0 °F 100% 29.98 in 9.0 mi SSE 11.5 mph - 0.01 in Rain Light Rain
7:53 PM 69.1 °F 69.1 °F 100% 29.96 in 10.0 mi SSE 9.2 mph - 0.01 in   Overcast
8:53 PM 69.1 °F 69.1 °F 100% 29.96 in 10.0 mi SSE 11.5 mph - 0.00 in   Overcast
9:18 PM 69.8 °F 68.0 °F 94% 29.99 in 10.0 mi South 10.4 mph - N/A   Overcast
9:43 PM 69.8 °F 69.8 °F 100% 29.99 in 10.0 mi South 10.4 mph - N/A   Overcast
9:53 PM 69.1 °F 69.1 °F 100% 29.98 in 10.0 mi South 10.4 mph - N/A   Overcast
10:53 PM 69.1 °F 69.1 °F 100% 29.99 in 10.0 mi South 8.1 mph - N/A   Overcast
11:24 PM 69.8 °F 69.8 °F 100% 30.00 in 10.0 mi South 6.9 mph - 0.00 in Rain Light Rain
11:53 PM 69.1 °F 69.1 °F 100% 29.98 in 9.0 mi South 10.4 mph - 0.00 in   Overcast